Probability
0 0 0 0 0 0 0 0 0 0 0 0 0 0 0 0 0 0 0 0 0 0 0 0 0 0 0 0 0 0 0 0 0 0 0 0 0 0 0 0 0 0 0
0 0 0 0 0 0 0 0 0 0 0 0 0 0 0 0 0 0 0 0 0 0 0 0 0 0 0 0 0 0 0 0 0 0 0 0 0 0 0 0 0 0 0
0 0 0 0 0 0 0 0 0 0 0 0 0 0 0 0 0 0 0 0 0 0 0 0 0 0 0 0 0 0 0 0 0 0 0 0 0 0 0 0 0 0 0
0 0 0 0 0 0 0 0 0 0 0 0 0 0 0 0 0 0 0 0 0 0 0 0 0 0 0 0 0 0 0 0 0 0 0 0 0 0 0 0 0 0 0
0 0 0 0 0 0 0 0 0 0 0 0 0 0 0 0 0 0 0 0 0 0 0 0 0 0 0 0 0 0 0 0 0 0 0 0 0 0 0 0 0 0 0
0 0 0 0 0 0 0 0 0 0 0 0 0 0 0 0 0 0 0 0 0 0 0 0 0 0 0 0 0 0 0 0 0 0 0 0 0 0 0 0 0 0 0
0 0 0 0 0 0 0 0 0 0 0 0 0 0 0 0 0 0 0 0 0 0 0 0 0 0 0 0 0 0 0 0 0 0 0 0 0 0 0 0 0 0 0
0 0 0 0 0 0 0 0 0 0 0 0 0 0 0 0 0 0 0 0 0 0 0 0 0 0 0 0 0 0 0 0 0 0 0 0 0 0 0 0 0 0 0
0 0 0 0 0 0 0 0 0 0 0 0 0 0 0 0 0 0 0 0 0 0 0 0 0 0 0 0 0 0 0 0 0 0 0 0 0 0 0 0 0 0 0
0 0 0 0 0 0 0 0 0 0 0 0 0 0 0 0 0 0 0 0 0 0 0 0 0 0 0 0 0 0 0 0 0 0 0 0 0 0 0 0 0 0 0
0 0 0 0 0 0 0 0 0 0 0 0 0 0 0 0 0 0 0 0 0 0 0 0 0 0 0 0 0 0 0 0 0 0 0 0 0 0 0 0 0 0 0
0 0 0 0 0 0 0 0 0 0 0 0 0 0 0 0 0 0 0 0 0 0 0 0 0 0 0 0 0 0 0 0 0 0 0 0 0 0 0 0 0 0 0
0 0 0 0 0 0 0 0 0 0 0 0 0 0 0 0 0 0 0 0 0 0 0 0 0 0 0 0 0 0 0 0 0 0 0 0 0 0 0 0 0 0 0
0 0 0 0 0 0 0 0 0 0 0 0 0 0 0 0 0 0 0 0 0 0 0 0 0 0 0 0 0 0 0 0 0 0 0 0 0 0 0 0 0 0 0
0 0 0 0 0 0 0 0 0 0 0 0 0 0 0 0 0 0 0 0 0 0 0 0 0 0 0 0 0 0 0 0 0 0 0 0 0 0 0 0 0 0 0
0 0 0 0 0 0 0 0 0 0 0 0 0 0 0 0 0 0 0 0 0 0 0 0 0 0 0 0 0 0 0 0 0 0 0 0 0 0 0 0 0 0 0
0 0 0 0 0 0 0 0 0 0 0 0 0 0 0 0 0 0 0 0 0 0 0 0 0 0 0 0 0 0 0 0 0 0 0 0 0 0 0 0 0 0 0
0 0 0 0 0 0 0 0 0 0 0 0 0 0 0 0 0 0 0 0 0 0 0 0 0 0 0 0 0 0 0 0 0 0 0 0 0 0 0 0 0 0 0
0 0 0 0 0 0 0 0 0 0 0 0 0 0 0 0 0 0 0 0 0 0 0 0 0 0 0 0 0 0 0 0 0 0 0 0 0 0 0 0 0 0 0
0 0 0 0 0 0 0 0 0 0 0 0 0 0 0 0 0 0 0 0 0 0 0 0 0 0 0 0 0 0 0 0 0 0 0 0 0 0 0 0 0 0 0
0 0 0 0 0 0 0 0 0 0 0 0 0 0 0 0 0 0 0 0 0 0 0 0 0 0 0 0 0 0 0 0 0 0 0 0 0 0 0 0 0 0 0
0 0 0 0 0 0 0 0 0 0 0 0 0 0 0 0 0 0 0 0 0 0 0 0 0 0 0 0 0 0 0 0 0 0 0 0 0 0 0 0 0 0 0
0 0 0 0 0 0 0 0 0 0 0 0 0 0 0 0 0 0 0 0 0 0 0 0 0 0 0 0 0 0 0 0 0 0 0 0 0 0 0 0 0 0 0
0 0 0 0 0 0 0 0 0 0 0 0 0 0 0 0 0 0 0 0 0 0 0 0 0 0 0 0 0 0 0 0 0 0 0 0 0 0 0 0 0 0 0
0 0 0 0 0 0 0 0 0 0 0 0 0 0 0 0 0 0 0 0 0 0 0 0 0 0 0 0 0 0 0 0 0 0 0 0 0 0 0 0 0 0 0
0 0 0 0 0 0 0 0 0 0 0 0 0 0 0 0 0 0 0 0 0 0 0 0 0 0 0 0 0 0 0 0 0 0 0 0 0 0 0 0 0 0 0
Height
5839 5837 5836 5835 5833 5831 5827 5825 5822 5822 5821 5819 5818 5815 5811 5809 5805 5801 5797 5793 5789 5785 5781 5777 5772 5769 5766 5762 5758 5755 5753 5750 5746 5744 5744 5746 5745 5744 5744 5744 5742 5741 5739
5834 5832 5830 5828 5827 5825 5821 5819 5816 5815 5813 5811 5809 5805 5802 5799 5796 5791 5786 5780 5774 5769 5766 5763 5759 5754 5751 5747 5744 5737 5734 5734 5731 5728 5726 5728 5732 5728 5729 5729 5728 5726 5724
5829 5828 5825 5823 5821 5818 5815 5812 5810 5808 5804 5800 5797 5794 5791 5786 5782 5777 5772 5768 5763 5758 5755 5750 5746 5741 5738 5732 5726 5722 5717 5714 5713 5709 5705 5705 5709 5706 5712 5711 5710 5711 5709
5823 5822 5820 5817 5816 5813 5810 5807 5803 5800 5795 5791 5788 5784 5780 5776 5771 5765 5759 5754 5749 5743 5738 5733 5729 5724 5719 5713 5707 5700 5695 5692 5691 5688 5685 5683 5683 5680 5682 5688 5687 5686 5687
5816 5814 5813 5811 5809 5806 5802 5799 5796 5791 5787 5782 5778 5773 5769 5764 5758 5752 5745 5740 5734 5728 5721 5715 5707 5701 5697 5691 5686 5681 5676 5669 5668 5666 5662 5660 5658 5656 5650 5653 5659 5660 5660
5810 5807 5805 5803 5800 5797 5794 5792 5788 5782 5777 5772 5767 5760 5755 5749 5743 5735 5728 5723 5717 5710 5703 5696 5690 5684 5678 5671 5665 5661 5657 5651 5646 5644 5641 5639 5636 5634 5626 5622 5632 5631 5632
5802 5799 5796 5793 5791 5789 5785 5781 5776 5770 5765 5759 5753 5747 5741 5735 5728 5721 5713 5706 5699 5692 5684 5677 5671 5665 5659 5653 5647 5643 5639 5633 5629 5626 5623 5620 5618 5614 5609 5601 5603 5607 5611
5792 5790 5788 5785 5783 5780 5775 5770 5766 5761 5755 5748 5741 5734 5727 5719 5710 5701 5693 5685 5678 5671 5664 5659 5654 5648 5643 5637 5631 5626 5622 5618 5614 5610 5607 5605 5601 5597 5594 5588 5585 5588 5593
5783 5781 5779 5776 5772 5768 5764 5760 5754 5747 5740 5733 5725 5717 5709 5700 5691 5683 5674 5667 5661 5652 5647 5642 5637 5632 5627 5620 5615 5610 5605 5600 5597 5594 5590 5587 5585 5583 5579 5574 5571 5572 5577
5774 5772 5769 5766 5763 5759 5754 5748 5740 5732 5723 5715 5707 5700 5692 5683 5675 5666 5659 5651 5644 5637 5631 5625 5620 5615 5609 5603 5596 5593 5589 5585 5581 5577 5573 5572 5571 5569 5566 5563 5561 5559 5561
5765 5764 5761 5757 5752 5746 5740 5732 5723 5715 5707 5700 5692 5684 5676 5668 5659 5651 5643 5636 5630 5622 5615 5609 5604 5597 5591 5585 5580 5577 5574 5570 5567 5563 5559 5557 5556 5554 5553 5550 5549 5549 5550
5757 5754 5748 5742 5737 5730 5723 5715 5707 5698 5692 5684 5677 5670 5662 5654 5646 5638 5630 5622 5614 5607 5600 5594 5588 5581 5575 5571 5568 5566 5563 5559 5556 5552 5549 5547 5545 5544 5542 5540 5540 5541 5543
5746 5740 5735 5728 5722 5715 5708 5700 5692 5685 5677 5669 5661 5655 5647 5640 5633 5625 5617 5608 5601 5594 5588 5582 5576 5570 5566 5563 5560 5557 5554 5551 5548 5545 5543 5540 5539 5537 5535 5534 5535 5536 5537
5732 5728 5723 5716 5709 5701 5693 5684 5675 5666 5658 5651 5646 5640 5633 5627 5620 5614 5606 5599 5592 5585 5579 5573 5569 5564 5560 5557 5554 5550 5546 5545 5543 5539 5536 5533 5532 5530 5528 5527 5528 5530 5531
5721 5715 5709 5702 5694 5684 5674 5665 5657 5650 5643 5638 5633 5628 5622 5617 5611 5605 5599 5592 5586 5580 5574 5569 5564 5560 5556 5552 5548 5545 5541 5540 5537 5532 5530 5528 5526 5525 5524 5523 5524 5524 5524
5709 5703 5695 5686 5676 5667 5658 5650 5642 5636 5630 5626 5621 5617 5613 5609 5604 5599 5594 5588 5582 5576 5570 5565 5560 5555 5550 5545 5541 5538 5535 5534 5533 5530 5528 5526 5524 5522 5520 5519 5519 5520 5522
5697 5689 5679 5669 5659 5650 5642 5634 5627 5623 5618 5614 5611 5608 5605 5603 5600 5596 5590 5585 5579 5573 5567 5562 5556 5551 5546 5542 5538 5534 5531 5531 5530 5528 5526 5524 5523 5522 5519 5518 5516 5517 5519
5681 5672 5663 5654 5645 5637 5629 5621 5615 5611 5606 5604 5603 5603 5603 5601 5597 5593 5587 5582 5576 5571 5566 5561 5555 5550 5545 5542 5538 5534 5532 5530 5528 5526 5524 5522 5522 5520 5517 5517 5517 5517 5516
5666 5658 5651 5644 5636 5629 5621 5613 5607 5603 5602 5603 5603 5603 5601 5599 5596 5592 5587 5582 5576 5570 5565 5560 5555 5550 5546 5542 5538 5534 5531 5528 5526 5524 5522 5520 5520 5519 5518 5518 5518 5517 5516
5655 5648 5642 5636 5631 5625 5618 5611 5608 5607 5606 5606 5605 5603 5601 5598 5596 5592 5587 5582 5575 5570 5565 5560 5554 5550 5546 5542 5538 5534 5531 5528 5524 5521 5519 5518 5518 5519 5520 5520 5520 5518 5517
5647 5642 5636 5631 5629 5625 5620 5617 5614 5612 5611 5609 5608 5606 5604 5601 5598 5593 5587 5580 5574 5569 5564 5558 5553 5547 5543 5539 5535 5531 5529 5526 5523 5520 5517 5516 5517 5518 5520 5519 5520 5521 5520
5641 5636 5632 5630 5628 5626 5623 5620 5619 5617 5615 5613 5612 5610 5608 5604 5598 5591 5585 5578 5572 5567 5561 5555 5549 5543 5538 5534 5530 5527 5524 5523 5521 5519 5517 5516 5516 5516 5517 5518 5520 5522 5523
5638 5634 5632 5630 5629 5627 5626 5625 5624 5622 5621 5619 5616 5613 5609 5604 5597 5590 5583 5576 5568 5561 5555 5549 5543 5538 5533 5528 5525 5522 5519 5518 5518 5517 5516 5515 5515 5516 5516 5517 5519 5522 5524
5637 5635 5634 5632 5632 5631 5631 5630 5629 5627 5626 5623 5620 5615 5610 5603 5597 5589 5581 5573 5565 5558 5551 5544 5538 5533 5528 5524 5519 5516 5514 5513 5513 5514 5514 5515 5515 5515 5516 5517 5519 5522 5524
5638 5637 5637 5637 5637 5636 5636 5635 5634 5632 5629 5626 5623 5618 5611 5603 5595 5587 5580 5571 5563 5556 5548 5541 5535 5529 5525 5521 5517 5513 5510 5508 5507 5508 5510 5511 5512 5514 5515 5517 5519 5521 5523
5641 5641 5641 5641 5641 5641 5641 5639 5638 5636 5634 5630 5626 5619 5612 5605 5597 5588 5579 5569 5560 5552 5545 5537 5532 5528 5523 5519 5515 5511 5508 5505 5503 5503 5504 5506 5508 5510 5513 5515 5517 5519 5521
Wind_Speed
25 28 32 32 31 29 29 29 31 28 29 30 32 34 38 42 46 50 53 55 56 55 53 54 57 56 52 49 48 49 50 51 54 57 59 59 59 57 53 53 51 54 57
32 36 37 35 32 31 33 33 32 33 35 37 39 41 46 49 51 52 56 58 57 56 54 53 53 52 49 49 51 56 58 59 61 61 60 58 57 60 59 58 58 60 63
37 39 36 34 33 34 35 36 36 37 40 44 47 49 52 53 56 58 58 57 59 61 60 56 58 61 63 68 75 75 78 78 74 70 69 70 71 74 71 70 67 69 72
38 36 32 30 32 35 36 38 39 42 46 51 52 53 55 57 59 58 59 62 63 65 67 69 71 75 77 80 84 86 82 81 83 83 81 82 84 86 86 86 89 90 86
33 33 33 32 34 35 37 39 43 46 48 51 54 57 56 58 62 65 68 69 69 73 78 78 81 85 87 89 88 86 88 85 85 84 83 83 84 85 93 95 96 96 92
34 34 35 35 35 38 39 41 45 47 50 55 60 63 65 68 71 73 76 77 79 83 85 86 86 84 83 84 84 84 85 84 85 83 81 82 82 81 83 87 87 87 84
36 36 35 34 33 36 39 43 46 52 58 63 66 69 72 75 77 78 80 83 85 85 83 81 77 72 70 71 72 70 68 66 65 63 63 63 64 65 68 71 67 64 60
30 31 32 33 35 40 44 49 55 61 65 68 71 73 75 78 80 82 84 84 81 79 74 68 64 64 62 61 62 60 61 63 61 59 61 58 57 58 63 63 60 54 47
28 31 35 37 41 47 52 56 61 65 67 69 72 76 79 81 83 83 79 76 73 67 62 58 53 55 60 63 64 61 61 63 62 61 61 59 58 59 58 55 52 46 42
31 34 39 43 49 53 57 61 65 69 73 76 78 81 83 82 79 76 76 71 65 63 61 57 59 63 67 68 62 59 58 59 58 58 58 57 55 54 52 48 42 38 34
38 42 47 50 53 57 60 65 70 74 76 79 80 80 77 75 73 70 66 63 61 62 61 63 64 65 63 56 51 51 51 50 47 47 47 46 45 43 40 38 33 30 30
45 48 51 54 58 62 67 71 75 78 79 78 76 72 68 63 61 61 61 61 60 59 59 58 55 50 45 41 38 38 37 35 35 34 33 30 29 29 25 24 25 26 25
47 51 55 59 64 68 72 75 76 76 74 73 70 63 57 56 54 53 53 53 52 49 46 42 38 35 32 30 29 28 27 28 28 28 26 25 25 24 24 21 20 21 23
52 55 59 64 69 73 75 74 74 72 72 67 57 50 48 46 42 41 41 41 38 34 31 30 28 28 27 26 25 25 25 24 26 27 27 27 25 22 18 18 20 22 20
57 61 65 68 72 73 74 74 72 68 62 51 46 43 40 37 36 36 33 30 28 27 26 25 25 26 26 26 26 25 27 26 25 22 18 16 15 14 12 14 15 15 14
60 64 67 68 70 71 71 69 62 51 46 45 43 38 36 32 30 26 23 22 23 23 22 23 24 26 25 24 23 22 22 20 18 14 12 10 11 10 11 10 11 9 9
61 63 64 65 67 67 61 51 43 42 42 40 33 27 22 20 18 17 20 22 24 23 21 20 21 21 22 19 18 16 13 12 11 11 11 10 10 10 12 12 6 6 11
61 62 61 60 57 51 45 43 42 36 29 20 11 8 11 12 14 19 22 22 19 17 16 17 18 19 19 20 19 17 14 13 12 12 11 11 9 8 10 5 5 6 7
57 56 52 47 42 40 39 36 25 12 7 9 9 9 10 13 17 17 18 18 16 17 18 19 19 19 20 21 20 17 16 14 14 12 11 10 7 5 6 3 5 7 5
48 44 39 37 33 29 21 14 16 16 16 15 13 13 15 16 15 17 18 17 17 19 21 21 21 21 20 19 18 17 15 15 16 13 12 11 10 6 5 3 2 7 6
39 36 32 28 17 8 11 16 16 16 16 17 18 18 17 15 18 20 21 21 21 22 23 24 24 25 24 22 20 18 16 15 15 15 13 8 6 7 8 8 2 2 5
31 28 21 8 4 10 14 15 16 18 19 19 19 18 20 21 23 25 26 25 25 25 25 26 26 25 25 24 23 20 18 15 13 12 12 9 3 5 7 6 7 6 3
21 12 1 8 12 14 17 19 20 22 22 21 20 21 23 25 27 28 28 29 30 31 32 31 30 28 26 24 22 21 19 17 13 11 9 7 5 2 5 8 9 13 10
5 4 9 12 15 19 22 24 23 22 21 21 23 25 27 29 29 30 31 32 32 32 32 31 29 27 24 22 21 19 18 17 16 13 10 7 5 3 3 8 13 14 10
8 8 11 16 21 24 22 21 22 22 23 24 26 27 29 30 32 33 32 31 31 31 31 28 26 24 23 22 20 17 15 13 14 14 12 11 8 5 4 5 7 9 8
6 11 20 25 24 22 22 23 24 24 23 24 26 28 30 30 32 33 34 34 34 34 31 27 24 21 21 21 20 16 14 12 11 11 12 11 12 10 8 8 8 8 8
Wind_Direction
309 313 316 314 307 300 291 289 293 297 297 296 297 294 288 286 287 288 291 295 295 293 291 290 288 285 280 275 274 273 271 275 276 275 272 270 270 271 270 265 263 267 274
310 311 312 310 305 299 296 296 294 296 296 296 293 290 292 293 293 294 296 297 296 295 296 294 291 287 287 286 282 279 280 285 287 283 279 275 275 273 269 266 268 274 280
300 302 302 300 298 296 297 293 293 294 292 291 292 293 294 297 298 299 298 296 296 294 296 297 295 292 291 289 291 291 288 289 289 285 281 278 279 277 273 271 270 271 273
294 295 292 288 290 290 288 286 286 286 287 289 290 294 297 300 301 300 298 300 302 301 298 296 293 291 290 289 291 294 293 290 289 287 285 282 282 281 277 273 274 275 273
289 287 284 282 281 280 281 281 284 286 289 291 295 297 297 297 299 299 299 298 297 296 294 291 292 293 292 291 291 289 289 291 291 289 288 285 285 286 286 283 281 279 276
282 281 280 278 277 278 281 283 287 289 292 296 298 299 298 297 297 296 297 296 295 293 292 292 292 292 292 291 289 286 286 288 290 291 289 285 284 287 287 284 282 281 279
284 282 283 284 281 283 287 291 293 295 297 297 297 296 295 293 292 291 291 291 293 295 296 296 295 293 294 294 293 289 287 288 288 286 285 285 284 285 285 283 279 274 271
290 291 290 288 284 284 287 291 294 295 294 294 293 292 290 290 290 292 295 297 298 298 297 294 292 290 291 293 291 287 286 287 287 285 284 284 284 284 284 284 281 273 264
294 293 288 284 284 286 289 292 293 294 294 294 293 294 295 296 297 299 300 299 300 298 297 294 290 292 295 292 287 284 285 285 284 284 283 282 281 282 284 283 280 272 265
290 287 286 287 288 289 291 293 296 298 298 298 298 299 300 302 301 300 299 299 298 297 295 293 288 287 290 292 285 281 285 285 283 283 282 280 279 279 279 281 281 277 270
289 289 290 290 290 292 296 298 298 297 297 298 300 301 301 301 301 300 299 298 295 293 290 291 291 289 289 291 289 285 286 287 288 288 286 284 283 281 282 282 282 279 269
289 290 291 293 295 296 297 297 297 298 299 298 298 299 300 300 300 299 297 295 293 290 292 295 296 296 295 294 292 290 291 292 292 290 291 291 288 285 282 281 273 268 263
289 290 292 293 293 294 294 295 296 296 296 296 298 300 300 301 300 298 296 295 296 298 299 299 299 301 303 303 302 299 296 291 290 292 292 290 288 296 294 278 263 266 277
288 289 289 290 292 294 296 297 297 299 299 300 300 302 304 306 304 302 302 303 304 304 304 306 308 308 307 305 301 294 290 290 296 301 298 293 291 291 290 276 258 265 281
288 289 292 295 295 296 297 298 299 300 301 302 303 307 309 310 308 309 309 310 312 313 313 311 309 308 304 298 292 289 288 294 301 301 301 299 298 291 284 271 261 269 268
292 293 295 296 296 297 299 299 299 299 300 303 305 306 308 309 313 315 319 325 325 323 318 312 309 310 310 311 309 304 296 294 297 296 298 306 315 314 321 311 263 257 267
295 296 298 299 300 301 302 302 301 302 303 304 304 305 310 317 321 324 327 327 325 323 323 324 326 329 330 330 336 342 331 320 309 301 302 302 320 322 322 334 317 274 260
302 303 303 302 303 304 306 308 310 310 310 312 321 340 337 331 330 328 330 334 338 347 353 357 359 357 355 354 351 351 346 338 331 320 305 299 310 330 340 327 11 336 267
305 305 305 306 306 309 314 318 323 339 38 71 58 20 357 347 340 346 353 355 1 3 2 358 356 356 355 356 356 348 347 342 336 327 307 299 312 329 351 47 28 339 312
306 307 309 308 311 321 337 23 67 80 79 63 41 23 12 7 8 360 355 357 356 351 346 342 339 337 336 336 339 343 345 348 348 336 314 288 284 283 314 332 33 25 82
307 310 309 308 317 3 62 71 73 72 61 51 43 36 28 18 360 352 349 346 342 338 335 333 331 329 328 327 325 323 325 334 347 352 342 327 280 260 272 286 239 87 62
311 311 308 312 84 89 82 78 75 66 58 51 44 31 14 1 350 348 346 345 343 341 339 336 334 330 327 325 322 317 313 315 324 338 347 353 354 257 238 234 209 193 177
312 313 353 113 107 98 91 82 74 67 59 46 31 15 4 358 355 353 350 347 344 343 341 339 337 334 331 327 321 318 314 306 304 310 328 342 360 17 206 195 199 193 193
298 126 117 112 108 103 95 84 73 59 44 33 22 12 2 356 353 352 350 348 347 346 344 341 341 340 340 338 334 325 314 304 295 288 288 299 317 331 129 153 165 169 179
129 111 111 112 110 102 87 75 62 50 39 27 17 7 1 360 359 357 355 352 349 348 347 345 345 349 353 353 351 345 332 313 294 282 267 261 260 251 234 210 189 192 209
101 108 117 113 101 91 81 68 56 45 34 23 17 13 10 9 7 5 1 355 351 355 356 356 358 3 5 2 357 355 356 343 317 288 265 246 240 231 217 211 207 197 190